FW5819 Weather Reports


Display with metric or nautical units.
time (UTC)temp
F
wind
direction
speed
MPH
gust
MPH
rain 1hr
in
rain 24hr
in
rain mn
in
humidity
%
barometer
mb
20260505004534 69 196 2.0 7.0 0.00 0.00 0.00 57 1003.2
20260505003031 70 246 3.0 10.0 0.00 0.00 0.00 56 1003.0
20260505001537 71 252 4.0 13.0 0.00 0.00 0.00 54 1002.9
20260505000041 71 160 3.0 14.0 0.00 0.00 0.00 53 1002.6
20260504234534 72 125 4.0 21.0 0.00 0.00 0.00 53 1002.6
20260504233034 73 148 6.0 15.0 0.00 0.00 0.00 53 1002.4
20260504231534 74 212 2.0 10.0 0.00 0.00 0.00 55 1002.1
20260504230037 74 211 5.0 15.0 0.00 0.00 0.00 54 1002.3
20260504224541 75 199 5.0 14.0 0.00 0.00 0.00 54 1002.4
20260504223031 75 189 3.0 18.0 0.00 0.00 0.00 55 1002.6
20260504221532 75 249 5.0 17.0 0.00 0.00 0.00 53 1002.7
20260504220034 73 207 4.0 12.0 0.00 0.00 0.00 58 1002.7
20260504214534 73 205 2.0 20.0 0.00 0.00 0.00 59 1002.9
20260504213037 74 234 6.0 15.0 0.00 0.00 0.00 55 1003.0
20260504211535 73 184 3.0 13.0 0.00 0.00 0.00 57 1003.0
20260504210034 76 327 5.0 16.0 0.00 0.00 0.00 53 1003.0
20260504204531 75 196 5.0 23.0 0.00 0.00 0.00 54 1003.2
20260504203041 75 221 6.0 23.0 0.00 0.00 0.00 54 1003.3
20260504201534 75 211 5.0 19.0 0.00 0.00 0.00 53 1003.5
20260504200036 74 196 7.0 15.0 0.00 0.00 0.00 51 1003.9
20260504194535 74 171 5.0 19.0 0.00 0.00 0.00 52 1004.1
20260504193035 74 161 6.0 15.0 0.00 0.00 0.00 51 1004.3
20260504191532 73 207 8.0 20.0 0.00 0.00 0.00 51 1004.5
20260504190038 73 196 5.0 19.0 0.00 0.00 0.00 52 1004.8
20260504184535 73 171 4.0 15.0 0.00 0.00 0.00 51 1004.9
20260504183035 73 204 4.0 15.0 0.00 0.00 0.00 49 1005.1
20260504181538 73 290 6.0 14.0 0.00 0.00 0.00 47 1005.3
20260504180035 72 225 6.0 20.0 0.00 0.00 0.00 49 1005.4
20260504174538 72 237 5.0 16.0 0.00 0.00 0.00 51 1005.4
20260504173035 72 285 5.0 15.0 0.00 0.00 0.00 52 1005.5
20260504171545 72 270 6.0 13.0 0.00 0.00 0.00 52 1005.7
20260504081535 52 238 4.0 11.0 0.00 0.00 0.00 64 1008.3
20260504044535 51 183 4.0 12.0 0.00 0.00 0.00 69 1010.8
20260504043045 50 234 4.0 9.0 0.00 0.00 0.00 69 1010.9
20260504041536 50 222 3.0 8.0 0.00 0.00 0.00 70 1011.0
20260504040035 50 192 3.0 11.0 0.00 0.00 0.00 70 1011.2
20260504034537 50 158 2.0 5.0 0.00 0.00 0.00 70 1011.4
20260504033038 51 229 1.0 6.0 0.00 0.00 0.00 69 1011.4
20260504031540 51 193 2.0 7.0 0.00 0.00 0.00 69 1011.8
20260504030035 51 185 1.0 8.0 0.00 0.00 0.00 68 1011.9
20260504024536 51 227 1.0 6.0 0.00 0.00 0.00 68 1012.0
20260504023034 52 242 2.0 9.0 0.00 0.00 0.00 67 1012.2
20260504021533 52 232 2.0 13.0 0.00 0.00 0.00 66 1012.2
20260504020036 52 214 3.0 9.0 0.00 0.00 0.00 66 1012.2
20260504014540 52 279 1.0 9.0 0.00 0.00 0.00 65 1012.3
20260504013047 53 241 4.0 12.0 0.00 0.00 0.00 64 1012.3
20260504011538 53 236 2.0 9.0 0.00 0.00 0.00 63 1012.3
20260504010039 54 284 5.0 11.0 0.00 0.00 0.00 62 1012.2